COSMOS 2251 DEB, 33971

Orbit data source: Space-Track

COSMOS 2251 DEB, 33971 is space debris in LEO originally from a launch on Wed, 16 Jun 1993 UTC launched from the Plesetsk Missile And Space Complex (PKMTR). The debris from Iridium 33, an American commercial communications satellite, has been tracked extensively since its accidental collision with the defunct Russian satellite Cosmos 2251 in 2009. This event, occurring at high speed in low Earth orbit (LEO), generated thousands of pieces of space debris, significantly increasing the risk of further collisions. The Iridium 33 debris cloud has impacted space traffic management and orbital debris mitigation strategies, making it a subject of ongoing study in space situational awareness.

Loading next visibility...
Identifier
33971, 1993-036FE
Orbit
LEO
Country
Flag of CISCIS
Related business
Manufacturer
Unknown
Mission
Spacecraft
Bus & Motor
Unknown
Mass
Unknown
Launch date (UTC)
1993-06-16 (33 years ago)
Launch vehicle
Unknown
Launch site
Plesetsk Missile And Space Complex (PKMTR)
Object type
Payload
Rocket body
Debris
Shape & HBR
Unknown shape, 0.2 m
Radar Cross Section
Medium (>0.1 m² and <1 m²)

Expand to show TLE details & history
Last TLE update: 11 hours ago

TLE from 11 hours ago
0 COSMOS 2251 DEB
1 33971U 93036FE  26238.04091851  .00000457  00000-0  15292-3 0  9991
2 33971  74.0252 139.8792 0019040 185.8065 282.7721 14.40104943918288
Epoch: 2026-08-26T00:58Z
TLE epoch observation values (Epoch: 2026-08-26T00:58:55.359Z)
Latitude
65.93866°
Longitude
-68.77195°
Altitude
766.207 km
Speed
7.479 km/s
True Right ascension
18h 41m 01s
True Declination
65° 48' 38"
Sunlit
Object was in daylight at epoch
Visualization orbit readout
Latitude
Unknown
Longitude
Unknown
Altitude
Unknown
Speed
Unknown
Apparent Right ascension
Unknown
Apparent Declination
Unknown
Sunlit
N/A
Visualization observer readout
Local Sidereal Time
03:19:41
Azimuth
Unknown
Elevation
Unknown
Doppler factor
Unknown
Orbital elements
Apogee altitude
769.355 km
Perigee altitude
742.189 km
Semi-major axis
7,133.909 km
Eccentricity
0.0019
Inclination
74.0252°
RAAN
139.8792°
Arg. of periapsis
185.8065°
True anomaly
282.5592°
Mean anomaly
282.7721°
Eccentric anomaly
282.66566°
Mean motion
3.60207 °/min
Orbital period
99.94 mins
BSTAR
0.00015292
Loading maneuver chart data...
Computing Atmospheric mass density...

Documentation

Showing up to 5 results
|